STARLINK-32707 (62478 NORAD) Tracking and Keplerian Element Data

This shows tracking and keplerian element data for the satellite.

Feedback or suggestion? Click here.




ElementValue
Catalog62478
NameSTARLINK-32707
Epoch Orbit667
Epoch Day35.20079624
Epoch Year2025
RAAN109.9001
Inclination42.9998
Eccentricity0.0014734
Argument of Perigee284.8882
Mean Anonmoly75.0347
Mean Motion15.50326241
Decay Rate-0.00040988
L11 62478U 24254S 25035.20079624 -.00040988 00000+0 -69934-3 0 9993
L22 62478 42.9998 109.9001 0014734 284.8882 75.0347 15.50326241 6673



Live tracking and technical data element details for STARLINK-32707 (NORAD 62478). STARLINK-32707 can be tracked NOW for your location showing map with azimuth and elevation plus other details from your city location.







IsCatalogInMostPopularTable: catalog: 62478, numindb: 18
Update: records affected: 1



GetName: 62478 STARLINK-32707

Hit Count: updated at: Sun, 18 May 2025 23:33:50 GMT